Flag for U.S.A. Weather past 2 weeks in Downey, California, U.S.A.

Now
69 °F

Clear.


Feels Like: 69 °F
Forecast: 69 / 85 °F
Wind: 7 mph from Northwest

Location: Long Beach Airport

Current Time: Aug 1, 2014 at 11:33:39 PM

Latest Report: Aug 1, 2014 at 10:53 PM


Visibility: 10 mi

Pressure: 29.90 "Hg

Humidity: 84%

Dew point: 64 °F

Location of DowneyLocation

Historic Weather in Downey — Graph

°F

Downey temperature yesterday

Maximum temperature yesterday: 87 °F (at 2:53 PM)
Minimum temperature yesterday: 69 °F (at 3:53 AM)
Average temperature yesterday: 74 °F

Past Weeks' High & Low Weather Summary

 TemperatureHumidityPressure
High91 °F (Jul 24, 2:53 PM)90% (Jul 22, 5:53 AM)30.06 "Hg (Jul 22, 5:53 AM)
Low64 °F (Jul 22, 5:53 AM)23% (Jul 28, 4:53 PM)29.73 "Hg (Jul 24, 5:53 PM)
Average74 °F68%29.94 "Hg
* Reported Jul 17 9:53 PM — Aug 1 9:53 PM, Downey, Weather by CustomWeather, © 2014

Note: Actual official high and low records may vary slightly from our data, if they occured in-between our weather recording intervals... More about our weather records

Advertising

Downey weather history for previous 24 hours

 ConditionsComfort  
Time TempWeatherWind HumidityBarometerVisibility
9:53 PM
Aug 1
70 °FClear.8 mph81%29.89 "Hg10 mi
8:53 PM72 °FClear.5 mph76%29.88 "Hg10 mi
7:53 PM74 °FSunny.5 mph71%29.85 "Hg10 mi
6:53 PM77 °FSunny.7 mph66%29.85 "Hg10 mi
5:53 PM79 °FSunny.8 mph58%29.85 "Hg10 mi
4:53 PM80 °FSunny.6 mph58%29.86 "Hg10 mi
3:53 PM80 °FSunny.7 mph58%29.87 "Hg10 mi
2:53 PM79 °FSunny.5 mph62%29.87 "Hg10 mi
1:53 PM76 °FSunny.9 mph67%29.89 "Hg10 mi
12:53 PM76 °FSunny.8 mph67%29.90 "Hg10 mi
11:53 AM77 °FSunny.8 mph64%29.91 "Hg10 mi
10:53 AM78 °FSunny.7 mph62%29.91 "Hg10 mi
9:53 AM76 °FSunny.No wind67%29.92 "Hg10 mi
8:53 AM74 °FScattered clouds.No wind71%29.92 "Hg10 mi
7:53 AM71 °FPartly sunny.No wind76%29.92 "Hg10 mi
6:53 AM69 °FPassing clouds.No wind81%29.91 "Hg10 mi
5:53 AM68 °FOvercast.No wind84%29.91 "Hg10 mi
4:53 AM68 °FOvercast.No wind84%29.90 "Hg10 mi
3:53 AM68 °FPassing clouds.3 mph87%29.90 "Hg10 mi
2:53 AM68 °FClear.3 mph87%29.90 "Hg10 mi
1:53 AM69 °FClear.No wind84%29.90 "Hg10 mi
12:53 AM69 °FClear.No wind84%29.91 "Hg10 mi
11:53 PM
Jul 31
70 °FClear.No wind79%29.92 "Hg10 mi
Weather by CustomWeather, © 2014

See weather overviewHow to use our weather pages